Stevens Point, WI

8:54 AM CDT on April 21, 2018 (GMT -0500)
Stevens Point Municipal

Weather History for KSTE - March, 2014

Change the Weather History Date:

Saturday, March 8, 2014

  Actual Average Record
Temperature  
Mean Temperature 17 °F -  
Max Temperature 27 °F 36 °F 70 °F (1987)
Min Temperature 7 °F 15 °F -14 °F (1967)
Degree Days  
Heating Degree Days 48    
Moisture  
Dew Point 10 °F    
Average Humidity 66    
Maximum Humidity 89    
Minimum Humidity 46    
Precipitation  
Precipitation 0.00 in - - ()
Sea Level Pressure  
Sea Level Pressure 30.18 in    
Wind  
Wind Speed 7 mph (NNW)    
Max Wind Speed 16 mph    
Max Gust Speed 23 mph    
Visibility 10 miles    
Events Snow    
Averages and records for this station are not official NWS values.
T = Trace of Precipitation, MM = Missing Value Source: NWS Daily Summary

Daily Weather History Graph

Daily Weather History Graph

Search for Another Location

Airport or City:

Astronomy

Mar. 08, 2014 Rise Set
Actual Time 6:23 AM CST 5:55 PM CST
Civil Twilight 5:54 AM CST 6:24 PM CST
Nautical Twilight 5:20 AM CST 6:58 PM CST
Astronomical Twilight 4:46 AM CST 7:32 PM CST
Moon 10:49 AM CST (3/8) 1:07 AM CST (3/8)
Length of Visible Light 12h 30m
Length of Day
11h 32m
First Quarter, 52% of the Moon is Illuminated
Mar 8
First Quarter
Mar 16
Full
Mar 23
Last Quarter
Mar 30
New
Apr 7
First Quarter

Hourly Weather History & Observations

Time (CST) Temp. Windchill Dew Point Humidity Pressure Visibility Wind Dir Wind Speed Gust Speed Precip Events Conditions
12:15 AM 27.9 °F 19.1 °F 17.6 °F 65% 30.07 in 10.0 mi North 9.2 mph 17.3 mph N/A   Overcast
12:35 AM 27.5 °F 18.6 °F 17.6 °F 66% 30.07 in 10.0 mi NNE 9.2 mph 16.1 mph N/A   Overcast
12:55 AM 25.5 °F 12.9 °F 17.2 °F 71% 30.09 in 10.0 mi NNE 16.1 mph 20.7 mph N/A   Mostly Cloudy
1:15 AM 23.5 °F 11.8 °F 15.8 °F 72% 30.10 in 10.0 mi NNE 12.7 mph 23.0 mph N/A   Scattered Clouds
1:35 AM 22.3 °F 10.8 °F 14.9 °F 73% 30.10 in 10.0 mi North 11.5 mph - N/A   Scattered Clouds
1:55 AM 21.2 °F 10.9 °F 14.0 °F 74% 30.12 in 10.0 mi North 9.2 mph 16.1 mph N/A   Clear
2:15 AM 20.3 °F 8.3 °F 13.1 °F 74% 30.12 in 10.0 mi North 11.5 mph - N/A   Scattered Clouds
2:35 AM 20.5 °F 9.2 °F 13.1 °F 73% 30.12 in 10.0 mi North 10.4 mph 16.1 mph N/A   Mostly Cloudy
2:55 AM 20.7 °F 9.5 °F 13.1 °F 73% 30.13 in 10.0 mi North 10.4 mph - N/A   Overcast
3:15 AM 20.3 °F 9.0 °F 13.1 °F 74% 30.13 in 10.0 mi North 10.4 mph - N/A   Overcast
3:35 AM 20.3 °F 9.8 °F 12.9 °F 73% 30.13 in 10.0 mi North 9.2 mph - N/A   Overcast
3:55 AM 20.1 °F 9.5 °F 12.6 °F 73% 30.14 in 10.0 mi North 9.2 mph - N/A   Overcast
4:15 AM 20.1 °F 11.3 °F 12.2 °F 71% 30.15 in 10.0 mi North 6.9 mph - N/A   Overcast
4:35 AM 19.9 °F 10.1 °F 12.0 °F 71% 30.16 in 10.0 mi North 8.1 mph - N/A   Overcast
4:55 AM 19.4 °F 9.5 °F 11.5 °F 71% 30.17 in 10.0 mi North 8.1 mph - N/A   Overcast
5:15 AM 19.0 °F 8.2 °F 10.8 °F 70% 30.17 in 10.0 mi North 9.2 mph - N/A   Overcast
5:35 AM 18.7 °F 7.0 °F 10.4 °F 70% 30.18 in 10.0 mi North 10.4 mph - N/A   Overcast
5:55 AM 18.3 °F 8.2 °F 10.4 °F 71% 30.18 in 10.0 mi North 8.1 mph - N/A   Overcast
6:15 AM 17.6 °F 9.3 °F 10.4 °F 73% 30.19 in 10.0 mi NNW 5.8 mph - N/A   Overcast
6:35 AM 16.9 °F 9.8 °F 9.9 °F 74% 30.20 in 10.0 mi North 4.6 mph - N/A   Overcast
6:55 AM 16.7 °F 8.3 °F 9.9 °F 74% 30.20 in 10.0 mi North 5.8 mph - N/A   Overcast
7:15 AM 16.7 °F 8.3 °F 9.5 °F 73% 30.22 in 10.0 mi North 5.8 mph - N/A   Overcast
7:35 AM 16.5 °F 6.0 °F 9.5 °F 74% 30.22 in 10.0 mi North 8.1 mph - N/A Snow Light Snow
7:55 AM 16.7 °F 5.3 °F 9.0 °F 72% 30.22 in 10.0 mi NNE 9.2 mph - N/A   Overcast
8:15 AM 17.1 °F 5.8 °F 8.4 °F 69% 30.23 in 10.0 mi North 9.2 mph - N/A   Mostly Cloudy
8:35 AM 17.2 °F 6.8 °F 7.9 °F 67% 30.23 in 10.0 mi NNW 8.1 mph - N/A   Clear
8:55 AM 17.6 °F 9.3 °F 8.2 °F 67% 30.23 in 10.0 mi NNW 5.8 mph - N/A   Scattered Clouds
9:15 AM 18.0 °F 9.8 °F 8.1 °F 65% 30.23 in 10.0 mi NNW 5.8 mph - N/A   Clear
9:35 AM 18.5 °F 11.7 °F 8.2 °F 64% 30.24 in 10.0 mi North 4.6 mph - N/A   Clear
9:55 AM 18.5 °F 11.7 °F 8.4 °F 65% 30.24 in 10.0 mi NE 4.6 mph - N/A   Clear
10:15 AM 19.4 °F 14.3 °F 7.9 °F 61% 30.24 in 10.0 mi ENE 3.5 mph - N/A   Clear
10:35 AM 20.5 °F - 8.8 °F 61% 30.24 in 10.0 mi Calm Calm - N/A   Clear
10:55 AM 20.3 °F 15.4 °F 8.6 °F 61% 30.24 in 10.0 mi ENE 3.5 mph - N/A   Clear
11:15 AM 22.1 °F 17.4 °F 9.7 °F 59% 30.24 in 10.0 mi North 3.5 mph - N/A   Clear
11:35 AM 22.8 °F 18.2 °F 9.1 °F 56% 30.23 in 10.0 mi West 3.5 mph - N/A   Clear
11:55 AM 22.5 °F - 9.5 °F 58% 30.23 in 10.0 mi Calm Calm - N/A   Clear
12:15 PM 23.2 °F 16.0 °F 9.3 °F 55% 30.22 in 10.0 mi West 5.8 mph - N/A   Clear
12:35 PM 23.4 °F 16.2 °F 8.4 °F 53% 30.21 in 10.0 mi WNW 5.8 mph - N/A   Clear
12:55 PM 24.1 °F 16.0 °F 7.9 °F 50% 30.20 in 10.0 mi NW 6.9 mph - N/A   Clear
1:15 PM 24.4 °F 17.5 °F 6.8 °F 47% 30.20 in 10.0 mi NW 5.8 mph - N/A   Clear
1:35 PM 24.8 °F 16.1 °F 8.6 °F 50% 30.19 in 10.0 mi NNW 8.1 mph - N/A   Clear
1:55 PM 25.3 °F 16.0 °F 8.4 °F 49% 30.19 in 10.0 mi NW 9.2 mph - N/A   Clear
2:15 PM 25.7 °F 20.1 °F 7.3 °F 46% 30.19 in 10.0 mi West 4.6 mph - N/A   Clear
2:35 PM 25.7 °F 17.1 °F 7.3 °F 46% 30.18 in 10.0 mi West 8.1 mph - N/A   Clear
2:55 PM 25.7 °F 16.4 °F 7.9 °F 47% 30.18 in 10.0 mi WSW 9.2 mph - N/A   Clear
3:15 PM 25.5 °F 17.8 °F 8.4 °F 48% 30.18 in 10.0 mi West 6.9 mph - N/A   Clear
3:35 PM 25.2 °F 15.7 °F 8.2 °F 49% 30.17 in 10.0 mi West 9.2 mph - N/A   Clear
3:55 PM 24.8 °F 16.1 °F 8.6 °F 50% 30.18 in 10.0 mi West 8.1 mph - N/A   Clear
4:15 PM 25.5 °F 16.9 °F 8.6 °F 49% 30.18 in 10.0 mi NW 8.1 mph - N/A   Clear
4:35 PM 24.8 °F 14.6 °F 9.1 °F 51% 30.18 in 10.0 mi West 10.4 mph - N/A   Clear
4:55 PM 24.6 °F 15.8 °F 9.5 °F 53% 30.18 in 10.0 mi West 8.1 mph - N/A   Clear
5:15 PM 23.9 °F 16.8 °F 10.0 °F 56% 30.19 in 10.0 mi West 5.8 mph 9.2 mph N/A   Clear
5:35 PM 23.5 °F 16.4 °F 10.2 °F 57% 30.19 in 10.0 mi West 5.8 mph - N/A   Clear
5:55 PM 22.8 °F 18.2 °F 10.4 °F 59% 30.19 in 10.0 mi West 3.5 mph - N/A   Clear
6:15 PM 22.1 °F 17.4 °F 10.4 °F 61% 30.18 in 10.0 mi WSW 3.5 mph - N/A   Clear
6:35 PM 21.4 °F - 10.6 °F 63% 30.19 in 10.0 mi Calm Calm - N/A   Clear
6:55 PM 20.7 °F 15.8 °F 10.4 °F 65% 30.18 in 10.0 mi WSW 3.5 mph - N/A   Clear
7:15 PM 20.1 °F - 10.2 °F 66% 30.18 in 10.0 mi Calm Calm - N/A   Clear
7:35 PM 19.6 °F - 10.2 °F 67% 30.18 in 10.0 mi Calm Calm - N/A   Clear
7:55 PM 18.9 °F - 10.0 °F 69% 30.18 in 10.0 mi Calm Calm - N/A   Clear
8:15 PM 15.3 °F - 8.1 °F 73% 30.18 in 10.0 mi Calm Calm - N/A   Clear
8:35 PM 15.3 °F - 9.3 °F 77% 30.18 in 10.0 mi Calm Calm - N/A   Clear
8:55 PM 10.6 °F - 4.6 °F 77% 30.18 in 10.0 mi Calm Calm - N/A   Clear
9:15 PM 12.6 °F - 8.2 °F 83% 30.19 in 10.0 mi Calm Calm - N/A   Clear
9:35 PM 11.3 °F - 7.7 °F 85% 30.18 in 10.0 mi Calm Calm - N/A   Clear
9:55 PM 12.4 °F 6.3 °F 8.6 °F 85% 30.18 in 10.0 mi WSW 3.5 mph - N/A   Clear
10:15 PM 15.6 °F 10.0 °F 9.5 °F 77% 30.18 in 10.0 mi West 3.5 mph - N/A   Clear
10:35 PM 15.8 °F 10.2 °F 9.1 °F 75% 30.18 in 10.0 mi WSW 3.5 mph - N/A   Clear
10:55 PM 14.5 °F - 8.6 °F 77% 30.18 in 10.0 mi Calm Calm - N/A   Clear
11:15 PM 9.7 °F - 3.9 °F 77% 30.17 in 10.0 mi Calm Calm - N/A   Clear
11:35 PM 7.2 °F - 4.1 °F 87% 30.17 in 10.0 mi Calm Calm - N/A   Clear
11:55 PM 7.3 °F - 4.8 °F 89% 30.17 in 10.0 mi Calm Calm - N/A   Clear